Japanese version Home page |
Updated on April 3, 2004 |
Profile |
Orbital ElementsEpoch 2003 Jan. 1.0 TT = JDT 2452640.5 T 2002 Dec. 27.38944 TT Muraoka q 1.5520549 (2000.0) P Q n 0.05417520 Peri. 346.91881 +0.89997974 +0.43245011 a 6.9172857 Node 347.03382 -0.37464657 +0.70279068 e 0.7756266 Incl. 14.18528 -0.22288207 +0.56486473 P 18.19 From 104 observations 1913-1989, mean residual 1".01.
|
Finding Charts
|
Magnitudes GraphH = 12.2 G = 0.15
|
The orbital elements are calculated by Kenji Muraoka.
|